Location: Hardenberg
(52.5670°N, 6.6170°E)
Time: 19:01:36
(UTC+02:00)

ISS - Pass Details

Date: 23 May 2021
Orbit: 417 x 422 km, 51.6° (Epoch: 12 June)

Event Time Altitude Azimuth Distance (km) Brightness Sun altitude
Rises 23:45:24 0° 280° (W) 2,369 0.6 -13.2°
Reaches altitude 10° 23:47:31 10° 275° (W) 1,504 -0.6 -13.3°
Maximum altitude 23:50:48 50° 199° (SSW) 546 -3.5 -13.5°
Enters shadow 23:52:26 25° 135° (SE) 886 -2.7 -13.6°
